Location: Newark
(29.9790°N, 31.1340°E)
Time: 19:46:09
(UTC+00:00)

Altair - All Passes

Search period start: 18 January 2020 00:00
Search period end: 28 January 2020 00:00
Orbit: 1502 x 1682 km, 47.2° (Epoch: 18 January)

Date Brightness Start Highest point End Pass type
(mag) Time Alt. Az. Time Alt. Az. Time Alt. Az.
18 Jan - 04:41:57 10° SE 04:44:36 11° ESE 04:47:16 10° ESE daylight
18 Jan - 06:38:21 10° SSW 06:48:05 59° SE 06:57:59 10° ENE daylight
18 Jan - 08:43:25 10° WSW 08:53:11 51° NNW 09:02:59 10° NE daylight
18 Jan - 10:51:49 10° WNW 11:00:20 29° N 11:08:43 10° NE daylight
18 Jan - 12:58:50 10° NW 13:07:57 37° NNE 13:16:49 10° E daylight
18 Jan - 15:03:49 10° NW 15:13:50 89° NE 15:23:23 10° SE daylight
18 Jan - 17:10:31 10° WNW 17:17:39 24° SW 17:24:38 10° S visible
19 Jan - 06:13:20 10° SSW 06:22:56 54° SE 06:32:41 10° ENE daylight
19 Jan - 08:18:02 10° WSW 08:27:53 54° NNW 08:37:47 10° NE daylight
19 Jan - 10:26:20 10° WNW 10:34:54 30° N 10:43:23 10° NE daylight
19 Jan - 12:33:33 10° NW 12:42:36 36° NNE 12:51:23 10° E daylight
19 Jan - 14:38:36 10° NW 14:48:38 84° NE 14:58:14 10° SE daylight
19 Jan - 16:44:57 10° WNW 16:52:35 27° SW 17:00:02 10° S visible
20 Jan - 05:48:23 10° SSW 05:57:47 49° SE 06:07:23 10° ENE daylight
20 Jan - 07:52:41 10° WSW 08:02:35 58° NNW 08:12:35 10° NE daylight
20 Jan - 10:00:51 10° WNW 10:09:28 30° N 10:18:03 10° NE daylight
20 Jan - 12:08:16 10° NW 12:17:13 34° NNE 12:25:57 10° E daylight
20 Jan - 14:13:22 10° NW 14:23:25 78° NE 14:33:03 10° SE daylight
20 Jan - 16:19:26 10° WNW 16:27:30 30° SW 16:35:21 10° S visible
21 Jan - 05:23:26 10° SSW 05:32:39 44° SE 05:42:02 10° ENE daylight
21 Jan - 07:27:21 10° WSW 07:37:18 62° NW 07:47:23 10° NE daylight
21 Jan - 09:35:21 10° WNW 09:44:04 31° N 09:52:43 10° NE daylight
21 Jan - 11:42:58 10° NW 11:51:51 33° NNE 12:00:30 10° ENE daylight
21 Jan - 13:48:08 10° NW 13:58:12 72° NE 14:07:50 10° ESE daylight
21 Jan - 15:53:59 10° WNW 16:02:25 34° SW 16:10:36 10° S visible
22 Jan - 04:58:33 10° SSW 05:07:31 40° SE 05:16:40 10° ENE daylight
22 Jan - 07:02:03 10° WSW 07:12:02 66° NW 07:22:10 10° NE daylight
22 Jan - 09:09:52 10° WNW 09:18:38 32° NNW 09:27:25 10° NE daylight
22 Jan - 11:17:38 10° NW 11:26:27 32° NNE 11:35:03 10° ENE daylight
22 Jan - 13:22:55 10° NW 13:32:58 68° NE 13:42:36 10° ESE daylight
22 Jan - 15:28:33 10° WNW 15:37:20 37° SW 15:45:50 10° SSE visible
23 Jan - 04:33:43 10° S 04:42:24 36° SE 04:51:16 10° ENE daylight
23 Jan - 06:36:47 10° WSW 06:46:47 71° NW 06:56:58 10° NE daylight
23 Jan - 08:44:22 10° WNW 08:53:15 33° NNW 09:02:07 10° NE daylight
23 Jan - 10:52:18 10° NW 11:01:02 31° NNE 11:09:35 10° ENE daylight
23 Jan - 12:57:42 10° NW 13:07:43 63° NE 13:17:20 10° ESE daylight
23 Jan - 15:03:10 10° WNW 15:12:13 42° SW 15:20:59 10° SSE daylight
24 Jan - 04:08:56 10° S 04:17:18 32° SE 04:25:49 10° ENE visible
24 Jan - 06:11:32 10° SW 06:21:32 76° NW 06:31:45 10° NE daylight
24 Jan - 08:18:53 10° W 08:27:51 34° NNW 08:36:49 10° NE daylight
24 Jan - 10:26:57 10° NW 10:35:37 30° N 10:44:09 10° ENE daylight
24 Jan - 12:32:29 10° NW 12:42:27 59° NNE 12:52:03 10° ESE daylight
24 Jan - 14:37:48 10° WNW 14:47:07 46° SW 14:56:06 10° SSE daylight
25 Jan - 03:44:13 10° S 03:52:12 29° SE 04:00:20 10° ENE visible
25 Jan - 05:46:19 10° SW 05:56:18 82° NW 06:06:32 10° NE daylight
25 Jan - 07:53:24 10° W 08:02:27 35° NNW 08:11:34 10° NE daylight
25 Jan - 10:01:36 10° NW 10:10:12 30° N 10:18:41 10° ENE daylight
25 Jan - 12:07:16 10° NW 12:17:10 55° NNE 12:26:45 10° ESE daylight
25 Jan - 14:12:28 10° WNW 14:22:00 51° SW 14:31:11 10° SSE daylight
26 Jan - 03:19:33 10° S 03:27:06 26° SE 03:34:47 10° ENE visible
26 Jan - 05:21:08 10° SW 05:31:05 87° NW 05:41:18 10° NE daylight
26 Jan - 07:27:57 10° W 07:37:04 37° NNW 07:46:18 10° NE daylight
26 Jan - 09:36:13 10° NW 09:44:46 29° N 09:53:15 10° ENE daylight
26 Jan - 11:42:04 10° NW 11:51:53 52° NNE 12:01:25 10° ESE daylight
26 Jan - 13:47:10 10° WNW 13:56:52 56° SW 14:06:13 10° SSE daylight
27 Jan - 02:54:58 10° S 03:02:00 23° SE 03:09:11 10° ENE visible
27 Jan - 04:55:58 10° SW 05:05:53 87° SE 05:16:05 10° NE daylight
27 Jan - 07:02:30 10° W 07:11:42 39° NNW 07:21:02 10° NE daylight
27 Jan - 09:10:50 10° NW 09:19:21 29° N 09:27:47 10° ENE daylight
27 Jan - 11:16:50 10° NW 11:26:35 49° NNE 11:36:04 10° ESE daylight
27 Jan - 13:21:52 10° NW 13:31:43 62° SW 13:41:13 10° SSE daylight
27 Jan - 15:31:55 10° WSW 15:35:08 12° WSW 15:38:20 10° SW daylight
